[[{"header":{"parameterUnit":"m.s-1","parameterCategory":1,"la1":30.2991,"la2":30.254,"lo1":-89.0895,"lo2":-89.0444,"dy":0.0017,"dx":0.0017,"nx":28,"ny":28,"refTime":"2025-08-27T21:00:00:Z","depth":0,"parameterNumber":2,"parameterNumberName":"U-component_of_WINDS"},"data":[0,0,0,0,0,0,0,0,0,0,0,0,0,0,0,0,0,0,0,0,0,0,0,0,0,0,0,0,0,0,0,0,0,0,0,0,0,0,0,0,0,0,0,0,0,0,0,0,0,0,0,0,0,0,0,0,0,0,-1.2155,-1.2155,0,-1.2174,-1.2174,-1.2174,-1.214,-1.2139,-1.2138,-1.2137,-1.2154,-1.2156,-1.2157,0,0,0,0,0,0,0,0,0,0,0,0,0,-1.2091,-1.2092,-1.2155,-1.2155,-1.2156,-1.2174,-1.2174,-1.2174,-1.214,-1.2139,-1.2137,-1.2136,-1.2154,-1.2156,-1.2158,0,0,0,0,0,0,0,0,0,0,0,0,0,-1.2115,-1.2093,-1.2155,-1.2141,-1.214,-1.2174,-1.2174,-1.2174,-1.214,-1.2139,-1.2137,-1.2135,-1.2153,-1.2156,-1.2158,-1.2206,0,0,-1.2165,-1.2166,0,0,0,0,0,0,0,0,-1.2114,-1.2117,-1.2143,-1.2142,-1.2141,-1.2153,-1.2158,-1.2185,-1.2141,-1.214,-1.2137,-1.2135,-1.2155,-1.2157,-1.2164,-1.2207,-1.2208,-1.2165,-1.2166,-1.2167,-1.2168,0,0,0,0,0,0,0,-1.2112,-1.2116,-1.2162,-1.2143,-1.2142,-1.2134,-1.2135,-1.2163,-1.2157,-1.214,-1.2138,-1.214,-1.2154,-1.2162,-1.2164,-1.2208,-1.2165,-1.2167,-1.2168,-1.2169,-1.2292,-1.2293,0,0,0,0,0,0,-1.2112,-1.2115,-1.2162,-1.2163,-1.2123,-1.2136,-1.2138,-1.2151,-1.2157,-1.2156,-1.2142,-1.2139,-1.2159,-1.2162,-1.2165,-1.2222,-1.2167,-1.217,-1.2171,-1.229,-1.2292,-1.2294,0,0,0,0,0,0,-1.2111,-1.2117,-1.2161,-1.2139,-1.2144,-1.2139,-1.2154,-1.2152,-1.216,-1.2158,-1.2157,-1.2151,-1.2158,-1.2162,-1.2196,-1.2222,-1.2171,-1.2173,-1.2288,-1.2291,-1.2293,-1.2335,0,0,0,0,0,0,-1.2109,-1.2116,-1.2134,-1.2139,-1.2145,-1.2192,-1.2155,-1.2153,-1.2164,-1.216,-1.2166,-1.2165,-1.2157,-1.2193,-1.2199,-1.2224,-1.2174,-1.2285,-1.2289,-1.2292,-1.2332,-1.2339,-1.2346,0,0,0,0,0,-1.2107,-1.2145,-1.2135,-1.2141,-1.2167,-1.2193,-1.2197,-1.2186,-1.2166,-1.2184,-1.2183,-1.2165,-1.2219,-1.2197,-1.2203,-1.2229,-1.2284,-1.2288,-1.2292,-1.2328,-1.2338,-1.2346,0,0,0,0,0,0,-1.2142,-1.2145,-1.2135,-1.2175,-1.2185,-1.2188,-1.221,-1.2197,-1.2211,-1.2207,-1.2193,-1.2195,-1.2232,-1.2235,-1.221,-1.2277,-1.2248,-1.2253,-1.2273,-1.2282,-1.2289,-1.2287,-1.2176,0,0,0,0,0,-1.2155,-1.2176,-1.2178,-1.2214,-1.2219,-1.2214,-1.2225,-1.2217,-1.2225,-1.2229,-1.223,-1.2239,-1.2258,-1.2271,-1.2288,-1.2333,-1.2334,-1.2354,-1.2361,-1.2367,-1.2371,-1.2396,-1.2405,-1.2308,-1.2308,-1.2308,0,0,-1.2181,-1.2186,-1.2199,-1.2221,-1.2227,-1.2249,-1.2217,-1.2242,-1.2258,-1.2232,-1.2265,-1.2267,-1.2276,-1.2316,-1.2334,-1.2319,-1.2399,-1.2373,-1.2377,-1.2378,-1.2401,-1.241,-1.2418,-1.2311,-1.231,-1.231,0,0,-1.224,-1.2246,-1.2276,-1.2283,-1.2293,-1.229,-1.2298,-1.2304,-1.2304,-1.2337,-1.2318,-1.2338,-1.237,-1.2378,-1.2386,-1.2451,-1.2434,-1.2457,-1.2493,-1.2517,-1.2524,-1.2531,-1.2553,-1.2561,-1.2462,-1.2462,-1.2462,0,-1.227,-1.2303,-1.2293,-1.232,-1.233,-1.2309,-1.234,-1.2347,-1.2363,-1.237,-1.2354,-1.2395,-1.24,-1.2442,-1.2458,-1.2465,-1.2473,-1.2455,-1.2524,-1.2531,-1.2537,-1.2558,-1.2566,-1.2464,-1.2464,-1.2464,-1.2463,0,-1.234,-1.2363,-1.2387,-1.2403,-1.2416,-1.2444,-1.2439,-1.2454,-1.2445,-1.2444,-1.2478,-1.2484,-1.2502,-1.2512,-1.2503,-1.2553,-1.2544,-1.2526,-1.2496,-1.2549,-1.2568,-1.2576,-1.2468,-1.2467,-1.2466,-1.2466,0,0,-1.2418,-1.243,-1.2439,-1.2446,-1.2457,-1.2475,-1.2503,-1.2522,-1.2534,-1.2547,-1.257,-1.2599,-1.2584,-1.2593,-1.2586,-1.2607,-1.2657,-1.2587,-1.2587,-1.2599,-1.2712,-1.2723,-1.2733,-1.2648,-1.2649,-1.2651,-1.2711,0,-1.2475,-1.2524,-1.2517,-1.2563,-1.2585,-1.2567,-1.2592,-1.2602,-1.2602,-1.262,-1.2621,-1.2642,-1.262,-1.2626,-1.2646,-1.2647,-1.2679,-1.2643,-1.2668,-1.2669,-1.2664,-1.2743,-1.2755,-1.2812,-1.2718,-1.272,-1.2721,0,-1.2547,-1.2563,-1.2612,-1.2621,-1.2629,-1.2652,-1.2669,-1.2687,-1.2698,-1.2697,-1.2709,-1.2698,-1.2727,-1.2699,-1.2738,-1.2714,-1.2724,-1.2727,-1.2729,-1.2729,-1.2696,-1.2744,-1.2829,-1.2837,-1.2733,-1.2732,-1.2731,0,-1.2598,-1.2631,-1.2665,-1.2672,-1.2683,-1.27,-1.2705,-1.2715,-1.2727,-1.2742,-1.275,-1.2769,-1.2779,-1.2794,-1.2789,-1.2769,-1.2829,-1.28,-1.2829,-1.2829,-1.284,-1.2839,-1.2926,-1.285,-1.285,-1.285,-1.285,0,-1.2661,-1.2691,-1.2688,-1.2708,-1.2742,-1.2735,-1.2769,-1.2773,-1.2782,-1.2803,-1.279,-1.2809,-1.2803,-1.2823,-1.2819,-1.2852,-1.2857,-1.2857,-1.2855,-1.2857,-1.2857,-1.2862,-1.2857,-1.2852,-1.2852,-1.2851,-1.2851,0,-1.2722,-1.2721,-1.2756,-1.2765,-1.2768,-1.2793,-1.28,-1.282,-1.2821,-1.2848,-1.2853,-1.2854,-1.2877,-1.2875,-1.29,-1.2898,-1.2939,-1.2933,-1.2935,-1.2933,-1.2961,-1.2958,-1.3053,-1.3065,-1.2983,-1.2984,-1.2984,0,-1.2761,-1.2784,-1.2796,-1.2809,-1.2816,-1.2838,-1.2851,-1.2846,-1.286,-1.2876,-1.2893,-1.2916,-1.2932,-1.297,-1.2973,-1.2993,-1.2987,-1.3019,-1.299,-1.2991,-1.2986,-1.2984,-1.2986,-1.3024,-1.3025,-1.3026,-1.3027,0,-1.283,-1.2829,-1.2848,-1.2868,-1.2884,-1.2899,-1.2912,-1.2924,-1.2921,-1.2937,-1.2961,-1.2975,-1.3002,-1.3024,-1.3043,-1.3049,-1.3037,-1.3037,-1.3044,-1.3045,-1.3044,-1.3044,-1.2949,-1.3033,-1.3033,-1.3032,-1.3032,-1.3032,-1.288,-1.29,-1.2912,-1.2934,-1.2944,-1.2958,-1.2977,-1.2981,-1.3001,-1.3022,-1.3019,-1.3046,-1.3058,-1.3083,-1.3091,-1.3112,-1.31,-1.3111,-1.3114,-1.3116,-1.3119,-1.3043,-1.3116,-1.3116,-1.3116,-1.3116,-1.3115,0,-1.2948,-1.2955,-1.2976,-1.2996,-1.3014,-1.3003,-1.3018,-1.3033,-1.3057,-1.307,-1.3088,-1.3116,-1.3138,-1.3144,-1.3165,-1.3181,-1.3176,-1.3187,-1.3184,-1.3186,-1.3129,-1.3119,-1.319,-1.319,-1.319,-1.319,-1.319,-1.319,-1.2985,-1.3018,-1.3019,-1.3057,-1.3065,-1.3091,-1.3101,-1.3114,-1.3124,-1.3156,-1.3174,-1.3179,-1.3189,-1.3211,-1.3231,-1.3233,-1.324,-1.3253,-1.3252,-1.3197,-1.319,-1.3183,-1.3174,-1.3255,-1.3255,-1.3307,-1.3307,-1.3308]},{"header":{"parameterUnit":"m.s-1","parameterCategory":1,"la1":30.2991,"la2":30.254,"lo1":-89.0895,"lo2":-89.0444,"dy":0.0017,"dx":0.0017,"nx":28,"ny":28,"refTime":"2025-08-27T21:00:00:Z","depth":0,"parameterNumber":3,"parameterNumberName":"V-component_of_WINDS"},"data":[0,0,0,0,0,0,0,0,0,0,0,0,0,0,0,0,0,0,0,0,0,0,0,0,0,0,0,0,0,0,0,0,0,0,0,0,0,0,0,0,0,0,0,0,0,0,0,0,0,0,0,0,0,0,0,0,0,0,1.7697,1.7698,0,1.7703,1.7703,1.7703,1.7749,1.775,1.7751,1.7752,1.7753,1.7752,1.7751,0,0,0,0,0,0,0,0,0,0,0,0,0,1.7723,1.7722,1.7697,1.7698,1.7698,1.7703,1.7703,1.7703,1.7748,1.775,1.7751,1.7752,1.7753,1.7752,1.7751,0,0,0,0,0,0,0,0,0,0,0,0,0,1.7718,1.7722,1.7697,1.7721,1.7723,1.7703,1.7703,1.7703,1.7748,1.775,1.7751,1.7753,1.7754,1.7752,1.7751,1.7707,0,0,1.7746,1.7745,0,0,0,0,0,0,0,0,1.7719,1.7717,1.7717,1.7719,1.7722,1.7727,1.7712,1.7704,1.7748,1.7738,1.7752,1.7754,1.7743,1.7742,1.7739,1.7707,1.7707,1.7746,1.7745,1.7744,1.7744,0,0,0,0,0,0,0,1.7719,1.7717,1.77,1.7717,1.772,1.773,1.7731,1.7711,1.7731,1.7739,1.7743,1.7743,1.7744,1.7741,1.774,1.7707,1.7746,1.7745,1.7744,1.7743,1.7639,1.7637,0,0,0,0,0,0,1.7716,1.7717,1.7699,1.77,1.7724,1.7728,1.773,1.7723,1.7731,1.7734,1.7741,1.7745,1.7742,1.7741,1.774,1.7688,1.7744,1.7743,1.7742,1.7641,1.7639,1.7637,0,0,0,0,0,0,1.7717,1.7714,1.7699,1.7709,1.7708,1.7726,1.7719,1.7723,1.7719,1.7733,1.7736,1.7734,1.7744,1.7742,1.7715,1.7689,1.7742,1.7741,1.7643,1.764,1.7638,1.7586,0,0,0,0,0,0,1.7717,1.7714,1.7698,1.7709,1.7708,1.7675,1.7717,1.7721,1.7717,1.7722,1.7727,1.773,1.7745,1.7717,1.7713,1.7688,1.7739,1.7645,1.7642,1.7639,1.759,1.7581,1.7574,0,0,0,0,0,1.7718,1.7683,1.7697,1.7695,1.7688,1.7673,1.7673,1.7692,1.7715,1.7698,1.7707,1.7729,1.7693,1.7714,1.771,1.7684,1.7647,1.7643,1.7639,1.7593,1.7583,1.7575,0,0,0,0,0,0,1.7667,1.7684,1.7701,1.7668,1.7669,1.7681,1.7661,1.7681,1.7674,1.7679,1.7703,1.7703,1.7672,1.7676,1.7699,1.7642,1.7674,1.7669,1.764,1.7631,1.7623,1.7622,1.7738,0,0,0,0,0,1.7652,1.764,1.7655,1.7625,1.7625,1.7643,1.7637,1.7652,1.7654,1.7654,1.7661,1.766,1.7649,1.764,1.7631,1.7591,1.7592,1.7571,1.7564,1.7557,1.7552,1.7531,1.7521,1.7623,1.7623,1.7623,0,0,1.7621,1.7629,1.7619,1.7615,1.7617,1.7603,1.7643,1.7626,1.7614,1.7651,1.7626,1.7631,1.7632,1.7599,1.7584,1.76,1.7524,1.7552,1.7547,1.7545,1.7525,1.7516,1.7507,1.762,1.7621,1.7621,0,0,1.7556,1.7561,1.7536,1.7538,1.7543,1.7555,1.7549,1.7559,1.7564,1.754,1.7567,1.7554,1.7534,1.7533,1.753,1.7467,1.7486,1.7463,1.7422,1.7401,1.7393,1.7386,1.7362,1.7353,1.7458,1.7458,1.7458,0,1.7515,1.7496,1.752,1.7502,1.7498,1.7533,1.7507,1.7508,1.7508,1.7504,1.7523,1.7499,1.7502,1.7469,1.7453,1.745,1.7443,1.7461,1.7392,1.7385,1.7379,1.7356,1.7347,1.7455,1.7455,1.7456,1.7456,0,1.7445,1.7431,1.741,1.7411,1.7406,1.7384,1.7404,1.7396,1.7412,1.7422,1.7397,1.7402,1.7394,1.7388,1.7403,1.7356,1.7366,1.7389,1.7421,1.7366,1.7345,1.7337,1.7451,1.7452,1.7453,1.7453,0,0,1.7345,1.7362,1.7354,1.7354,1.7362,1.7351,1.7331,1.7324,1.7316,1.7316,1.7298,1.7281,1.7302,1.7298,1.7314,1.7296,1.7244,1.732,1.7321,1.7304,1.7191,1.7173,1.7163,1.7258,1.7257,1.7255,1.7191,0,1.7282,1.7248,1.727,1.7232,1.7219,1.7253,1.7235,1.7237,1.7247,1.7236,1.7246,1.7233,1.7263,1.7261,1.7245,1.7253,1.7221,1.7259,1.724,1.7239,1.7236,1.7152,1.7133,1.7071,1.7183,1.7182,1.7181,0,1.7202,1.72,1.7161,1.7172,1.7167,1.7151,1.7147,1.7137,1.714,1.7148,1.7145,1.7166,1.7145,1.7179,1.715,1.7175,1.7169,1.7173,1.7171,1.7168,1.7205,1.7145,1.7052,1.7042,1.7168,1.7169,1.717,0,1.7131,1.7118,1.7093,1.7093,1.7106,1.7093,1.7098,1.7103,1.7098,1.7095,1.7091,1.7085,1.7081,1.7075,1.7093,1.7116,1.7061,1.7096,1.7066,1.7065,1.705,1.7051,1.6953,1.705,1.705,1.705,1.705,0,1.7056,1.7031,1.7062,1.7046,1.7018,1.7044,1.7016,1.7024,1.7029,1.7014,1.7043,1.7029,1.7055,1.7043,1.7057,1.703,1.7028,1.7033,1.7037,1.7029,1.7028,1.7024,1.7028,1.7048,1.7048,1.7049,1.7049,0,1.6971,1.6991,1.6966,1.6981,1.6984,1.6963,1.6975,1.6961,1.6973,1.6955,1.6952,1.6971,1.6958,1.6977,1.6966,1.6975,1.6938,1.6949,1.6937,1.6939,1.6907,1.6909,1.6801,1.6788,1.6895,1.6894,1.6893,0,1.6921,1.6902,1.6916,1.6909,1.6912,1.6901,1.6897,1.6922,1.6916,1.6919,1.6903,1.6894,1.6887,1.6866,1.6878,1.6869,1.6879,1.6842,1.6878,1.6871,1.6877,1.6877,1.6874,1.6834,1.6833,1.6832,1.6831,0,1.6829,1.684,1.6833,1.683,1.6824,1.6822,1.6822,1.6815,1.6841,1.6833,1.6821,1.6817,1.6807,1.6796,1.6791,1.6795,1.6816,1.682,1.6812,1.6803,1.6796,1.6798,1.6915,1.6822,1.6823,1.6823,1.6824,1.6824,1.6758,1.6743,1.6751,1.6742,1.6745,1.6745,1.6732,1.6744,1.6736,1.673,1.6746,1.673,1.6734,1.6731,1.6732,1.6719,1.6735,1.6724,1.6721,1.6717,1.6712,1.6801,1.6719,1.6719,1.6719,1.672,1.672,0,1.6666,1.6674,1.6666,1.6666,1.6659,1.6683,1.6684,1.6676,1.6663,1.6666,1.666,1.6646,1.6637,1.6649,1.6641,1.6629,1.6638,1.6625,1.6625,1.6626,1.6699,1.6705,1.6618,1.6618,1.6618,1.6618,1.6618,1.6618,1.6618,1.6593,1.6606,1.6583,1.659,1.6576,1.6575,1.6575,1.6577,1.6562,1.6554,1.6563,1.6569,1.6563,1.6555,1.6559,1.6553,1.6537,1.6543,1.6611,1.6621,1.663,1.6636,1.6536,1.6536,1.6472,1.6471,1.6471]}]]